Weather History for Monticello, KY

Change the Weather History Date:

Sunday, November 18, 2012

  Actual Average Record
Temperature  
Mean Temperature 42 °F -  
Max Temperature 63 °F 57 °F 74 °F (1957)
Min Temperature 22 °F 36 °F 12 °F (1959)
Degree Days  
Heating Degree Days 22    
Moisture  
Dew Point 27 °F    
Average Humidity 70    
Maximum Humidity 96    
Minimum Humidity 28    
Precipitation  
Precipitation 0.00 in - - ()
Sea Level Pressure  
Sea Level Pressure 30.43 in    
Wind  
Wind Speed 1 mph (North)    
Max Wind Speed 7 mph    
Max Gust Speed -    
Visibility 8 miles    
Events      
Averages and records for this station are not official NWS values.
T = Trace of Precipitation, MM = Missing Value Source: NWS Daily Summary

Daily Weather History Graph

Daily Weather History Graph

Search for Another Location

Airport:

Trip Planner

Search our weather history database for the weather conditions in past years. The results will help you decide how hot, cold, wet, or windy it might be!

Date:

Astronomy

Nov. 18, 2012 Rise Set
Actual Time 6:21 AM CST 4:27 PM CST
Civil Twilight 5:53 AM CST 4:55 PM CST
Nautical Twilight 5:21 AM CST 5:27 PM CST
Astronomical Twilight 4:51 AM CST 5:57 PM CST
Moon 10:49 AM CST (11/18) 9:44 PM CST (11/18)
Length of Visible Light 11h 02m
Length of Day
10h 06m
Waxing Crescent, 30% of the Moon is Illuminated
Nov 18
Waxing Crescent
Nov 20
First Quarter
Nov 28
Full
Dec 6
Last Quarter
Dec 13
New

Hourly Weather History & Observations

Time (CST) Temp. Dew Point Humidity Pressure Visibility Wind Dir Wind Speed Gust Speed Precip Events Conditions
12:56 AM 25.2 °F 24.1 °F 96% 30.45 in 5.0 mi Calm Calm - N/A   Clear
1:56 AM 25.2 °F 24.1 °F 96% 30.45 in 5.0 mi Calm Calm - N/A   Clear
2:56 AM 23.0 °F 22.1 °F 96% 30.45 in 5.0 mi Calm Calm - N/A   Clear
3:56 AM 23.0 °F 22.1 °F 96% 30.46 in 5.0 mi Calm Calm - N/A   Clear
4:56 AM 22.1 °F 21.0 °F 96% 30.48 in 5.0 mi Calm Calm - N/A   Clear
5:56 AM 22.1 °F 21.0 °F 96% 30.48 in 5.0 mi Calm Calm - N/A   Clear
6:56 AM 25.2 °F 23.0 °F 91% 30.49 in 4.0 mi Calm Calm - N/A   Clear
7:56 AM 34.9 °F 31.1 °F 86% 30.48 in 3.0 mi Calm Calm - N/A   Clear
8:56 AM 50.0 °F 31.1 °F 48% 30.48 in 5.0 mi Calm Calm - N/A   Haze
9:56 AM 55.9 °F 25.2 °F 31% 30.47 in 10.0 mi SE 6.9 mph - N/A   Clear
10:56 AM 59.0 °F 28.0 °F 31% 30.45 in 10.0 mi Calm Calm - N/A   Clear
11:56 AM 61.9 °F 29.1 °F 29% 30.42 in 10.0 mi Calm Calm - N/A   Clear
12:56 PM 63.0 °F 32.0 °F 31% 30.40 in 10.0 mi North 5.8 mph - N/A   Clear
1:56 PM 63.9 °F 32.0 °F 30% 30.38 in 10.0 mi North 6.9 mph - N/A   Clear
2:56 PM 63.9 °F 30.0 °F 28% 30.38 in 10.0 mi NNW 4.6 mph - N/A   Clear
3:56 PM 59.0 °F 32.0 °F 36% 30.39 in 10.0 mi Calm Calm - N/A   Clear
4:56 PM 45.0 °F 32.0 °F 60% 30.40 in 10.0 mi Calm Calm - N/A   Clear
5:56 PM 34.9 °F 29.1 °F 79% 30.43 in 10.0 mi Calm Calm - N/A   Clear
6:56 PM 32.0 °F 28.0 °F 85% 30.43 in 10.0 mi Calm Calm - N/A   Clear
7:56 PM 32.0 °F 29.1 °F 89% 30.43 in 10.0 mi Calm Calm - N/A   Clear
8:56 PM 32.0 °F 28.0 °F 85% 30.42 in 10.0 mi Calm Calm - N/A   Clear
9:56 PM 29.1 °F 27.1 °F 92% 30.41 in 10.0 mi Calm Calm - N/A   Clear
10:56 PM 29.1 °F 27.1 °F 92% 30.40 in 10.0 mi Calm Calm - N/A   Clear
11:56 PM 27.1 °F 25.2 °F 92% 30.39 in 10.0 mi Calm Calm - N/A   Clear